LOCATION_NAME,SAMPLE COLLECTION TIME,DOSE EQUIVALENT RATE (nSv/h),GAMMA COUNT RATE R02 (CPM),GAMMA COUNT RATE R03 (CPM),GAMMA COUNT RATE R04 (CPM),GAMMA COUNT RATE R05 (CPM),GAMMA COUNT RATE R06 (CPM),GAMMA COUNT RATE R07 (CPM),GAMMA COUNT RATE R08 (CPM),GAMMA COUNT RATE R09 (CPM),STATUS
KY: LOUISVILLE,01/01/2019 00:06:00,,2289.00,1413.00,438.00,236.00,140.00,165.00,104.00,52.00,APPROVED
KY: LOUISVILLE,01/01/2019 01:06:00,,2228.00,1362.00,421.00,225.00,135.00,154.00,100.00,52.00,APPROVED
KY: LOUISVILLE,01/01/2019 02:06:00,,2238.00,1354.00,421.00,222.00,133.00,152.00,99.00,49.00,APPROVED
KY: LOUISVILLE,01/01/2019 03:06:00,,2272.00,1393.00,431.00,227.00,139.00,156.00,99.00,51.00,APPROVED
KY: LOUISVILLE,01/01/2019 04:07:00,,2318.00,1426.00,429.00,240.00,137.00,159.00,101.00,52.00,APPROVED
KY: LOUISVILLE,01/01/2019 05:07:00,,2342.00,1436.00,441.00,239.00,139.00,162.00,103.00,52.00,APPROVED
KY: LOUISVILLE,01/01/2019 06:07:00,,2367.00,1450.00,444.00,239.00,139.00,159.00,100.00,51.00,APPROVED
KY: LOUISVILLE,01/01/2019 07:07:00,,2385.00,1448.00,440.00,237.00,141.00,160.00,100.00,49.00,APPROVED
KY: LOUISVILLE,01/01/2019 08:07:00,,2386.00,1441.00,437.00,234.00,137.00,156.00,98.00,49.00,APPROVED
KY: LOUISVILLE,01/01/2019 09:08:00,,2390.00,1420.00,438.00,224.00,137.00,151.00,97.00,48.00,APPROVED
KY: LOUISVILLE,01/01/2019 10:08:00,,2426.00,1429.00,435.00,229.00,137.00,156.00,96.00,49.00,APPROVED
KY: LOUISVILLE,01/01/2019 11:08:00,,2411.00,1449.00,440.00,227.00,137.00,157.00,96.00,50.00,APPROVED
KY: LOUISVILLE,01/01/2019 12:08:00,,2454.00,1469.00,441.00,238.00,140.00,157.00,98.00,48.00,APPROVED
KY: LOUISVILLE,01/01/2019 13:08:00,,2449.00,1478.00,445.00,234.00,142.00,162.00,99.00,50.00,APPROVED
KY: LOUISVILLE,01/01/2019 14:09:00,,2476.00,1489.00,443.00,234.00,140.00,161.00,99.00,51.00,APPROVED
KY: LOUISVILLE,01/01/2019 15:09:00,,2474.00,1479.00,445.00,236.00,141.00,159.00,99.00,49.00,APPROVED
KY: LOUISVILLE,01/01/2019 16:09:00,,2473.00,1482.00,449.00,236.00,142.00,163.00,98.00,50.00,APPROVED
KY: LOUISVILLE,01/01/2019 17:09:00,,2502.00,1506.00,459.00,245.00,142.00,164.00,99.00,50.00,APPROVED
KY: LOUISVILLE,01/01/2019 18:09:00,,2484.00,1507.00,453.00,241.00,142.00,164.00,100.00,52.00,APPROVED
KY: LOUISVILLE,01/01/2019 19:10:00,,2483.00,1491.00,452.00,242.00,141.00,161.00,101.00,49.00,APPROVED
KY: LOUISVILLE,01/01/2019 20:10:00,,2477.00,1498.00,448.00,239.00,145.00,160.00,99.00,50.00,APPROVED
KY: LOUISVILLE,01/01/2019 21:10:00,,2491.00,1503.00,449.00,242.00,144.00,164.00,101.00,49.00,APPROVED
KY: LOUISVILLE,01/01/2019 22:10:00,,2475.00,1510.00,453.00,242.00,143.00,168.00,101.00,49.00,APPROVED
KY: LOUISVILLE,01/01/2019 23:10:00,,2514.00,1526.00,455.00,243.00,143.00,165.00,100.00,51.00,APPROVED
KY: LOUISVILLE,01/02/2019 00:11:00,,2489.00,1522.00,457.00,242.00,142.00,164.00,98.00,51.00,APPROVED
KY: LOUISVILLE,01/02/2019 01:11:00,,2499.00,1493.00,448.00,238.00,141.00,162.00,100.00,50.00,APPROVED
KY: LOUISVILLE,01/02/2019 02:11:00,,2477.00,1495.00,448.00,240.00,141.00,165.00,99.00,48.00,APPROVED
KY: LOUISVILLE,01/02/2019 03:11:00,,2480.00,1503.00,449.00,240.00,140.00,164.00,99.00,51.00,APPROVED
KY: LOUISVILLE,01/02/2019 04:11:00,,2504.00,1520.00,459.00,248.00,141.00,170.00,101.00,52.00,APPROVED
KY: LOUISVILLE,01/02/2019 05:12:00,,2522.00,1543.00,468.00,252.00,146.00,168.00,99.00,52.00,APPROVED
KY: LOUISVILLE,01/02/2019 06:12:00,,2536.00,1551.00,467.00,251.00,145.00,170.00,100.00,51.00,APPROVED
KY: LOUISVILLE,01/02/2019 07:12:00,,2570.00,1579.00,477.00,253.00,148.00,172.00,101.00,52.00,APPROVED
KY: LOUISVILLE,01/02/2019 08:12:00,,2596.00,1593.00,482.00,264.00,153.00,177.00,105.00,52.00,APPROVED
KY: LOUISVILLE,01/02/2019 09:12:00,,2626.00,1635.00,493.00,275.00,153.00,183.00,109.00,53.00,APPROVED
KY: LOUISVILLE,01/02/2019 10:13:00,,2630.00,1639.00,491.00,276.00,151.00,182.00,110.00,53.00,APPROVED
KY: LOUISVILLE,01/02/2019 11:13:00,,2621.00,1647.00,500.00,277.00,157.00,185.00,109.00,54.00,APPROVED
KY: LOUISVILLE,01/02/2019 12:13:00,,2604.00,1626.00,492.00,273.00,157.00,187.00,108.00,52.00,APPROVED
KY: LOUISVILLE,01/02/2019 13:13:00,,2597.00,1623.00,493.00,270.00,152.00,183.00,108.00,53.00,APPROVED
KY: LOUISVILLE,01/02/2019 14:06:00,,2592.00,1613.00,488.00,270.00,153.00,181.00,110.00,53.00,APPROVED
KY: LOUISVILLE,01/02/2019 15:12:00,,2509.00,1485.00,441.00,235.00,138.00,156.00,93.00,49.00,APPROVED
KY: LOUISVILLE,01/02/2019 16:12:00,,2547.00,1556.00,467.00,256.00,146.00,172.00,102.00,52.00,APPROVED
KY: LOUISVILLE,01/02/2019 17:12:00,,2556.00,1587.00,482.00,263.00,151.00,181.00,108.00,50.00,APPROVED
KY: LOUISVILLE,01/02/2019 18:12:00,,2580.00,1623.00,491.00,271.00,152.00,179.00,110.00,54.00,APPROVED
KY: LOUISVILLE,01/02/2019 19:13:00,,2548.00,1586.00,485.00,271.00,150.00,182.00,110.00,52.00,APPROVED
KY: LOUISVILLE,01/02/2019 20:13:00,,2521.00,1556.00,476.00,266.00,151.00,176.00,105.00,53.00,APPROVED
KY: LOUISVILLE,01/02/2019 21:13:00,,2509.00,1533.00,464.00,252.00,144.00,171.00,101.00,51.00,APPROVED
KY: LOUISVILLE,01/02/2019 22:13:00,,2488.00,1509.00,454.00,244.00,143.00,165.00,101.00,52.00,APPROVED
KY: LOUISVILLE,01/02/2019 23:13:00,,2495.00,1496.00,450.00,241.00,141.00,163.00,101.00,49.00,APPROVED
KY: LOUISVILLE,01/03/2019 00:14:00,,2521.00,1510.00,460.00,242.00,144.00,164.00,99.00,50.00,APPROVED
KY: LOUISVILLE,01/03/2019 01:14:00,,2521.00,1526.00,455.00,246.00,145.00,165.00,99.00,50.00,APPROVED
KY: LOUISVILLE,01/03/2019 02:14:00,,2532.00,1539.00,468.00,248.00,143.00,169.00,103.00,50.00,APPROVED
KY: LOUISVILLE,01/03/2019 03:14:00,,2550.00,1565.00,474.00,256.00,147.00,172.00,102.00,51.00,APPROVED
KY: LOUISVILLE,01/03/2019 04:14:00,,2568.00,1571.00,472.00,257.00,145.00,175.00,104.00,52.00,APPROVED
KY: LOUISVILLE,01/03/2019 05:15:00,,2583.00,1574.00,471.00,255.00,148.00,172.00,103.00,51.00,APPROVED
KY: LOUISVILLE,01/03/2019 06:15:00,,2584.00,1557.00,470.00,249.00,147.00,169.00,102.00,50.00,APPROVED
KY: LOUISVILLE,01/03/2019 07:15:00,,2598.00,1567.00,471.00,249.00,145.00,171.00,102.00,50.00,APPROVED
KY: LOUISVILLE,01/03/2019 08:15:00,,2606.00,1575.00,476.00,250.00,146.00,171.00,99.00,49.00,APPROVED
KY: LOUISVILLE,01/03/2019 09:15:00,,2607.00,1584.00,471.00,250.00,146.00,172.00,100.00,52.00,APPROVED
KY: LOUISVILLE,01/03/2019 10:16:00,,2624.00,1570.00,474.00,251.00,144.00,172.00,101.00,51.00,APPROVED
KY: LOUISVILLE,01/03/2019 11:16:00,,2630.00,1595.00,478.00,257.00,148.00,173.00,101.00,51.00,APPROVED
KY: LOUISVILLE,01/03/2019 12:16:00,,2635.00,1611.00,479.00,258.00,150.00,173.00,104.00,52.00,APPROVED
KY: LOUISVILLE,01/03/2019 13:16:00,,2649.00,1622.00,481.00,263.00,151.00,178.00,102.00,49.00,APPROVED
KY: LOUISVILLE,01/03/2019 14:16:00,,2680.00,1630.00,485.00,263.00,153.00,178.00,105.00,50.00,APPROVED
KY: LOUISVILLE,01/03/2019 16:17:00,,2655.00,1614.00,487.00,260.00,149.00,176.00,106.00,51.00,APPROVED
KY: LOUISVILLE,01/03/2019 17:17:00,,2605.00,1601.00,483.00,264.00,151.00,180.00,103.00,51.00,APPROVED
KY: LOUISVILLE,01/03/2019 22:18:00,,2511.00,1535.00,467.00,250.00,145.00,167.00,104.00,50.00,APPROVED
KY: LOUISVILLE,01/03/2019 23:18:00,,2534.00,1536.00,464.00,249.00,145.00,169.00,101.00,51.00,APPROVED
KY: LOUISVILLE,01/04/2019 00:18:00,,2585.00,1575.00,471.00,252.00,146.00,169.00,102.00,50.00,APPROVED
KY: LOUISVILLE,01/04/2019 01:19:00,,2658.00,1622.00,481.00,258.00,149.00,177.00,104.00,51.00,APPROVED
KY: LOUISVILLE,01/04/2019 02:19:00,,2694.00,1686.00,500.00,274.00,154.00,182.00,107.00,51.00,APPROVED
KY: LOUISVILLE,01/04/2019 03:19:00,,2726.00,1704.00,506.00,282.00,154.00,187.00,108.00,53.00,APPROVED
KY: LOUISVILLE,01/04/2019 04:19:00,,2813.00,1804.00,528.00,298.00,162.00,202.00,114.00,55.00,APPROVED
KY: LOUISVILLE,01/04/2019 05:19:00,,2792.00,1792.00,536.00,299.00,169.00,204.00,116.00,55.00,APPROVED
KY: LOUISVILLE,01/04/2019 06:20:00,,2746.00,1745.00,513.00,288.00,162.00,194.00,112.00,52.00,APPROVED
KY: LOUISVILLE,01/04/2019 07:20:00,,2741.00,1718.00,511.00,284.00,159.00,193.00,108.00,52.00,APPROVED
KY: LOUISVILLE,01/04/2019 08:20:00,,2734.00,1715.00,505.00,279.00,160.00,188.00,109.00,51.00,APPROVED
KY: LOUISVILLE,01/04/2019 09:20:00,,2746.00,1737.00,514.00,283.00,158.00,194.00,109.00,55.00,APPROVED
KY: LOUISVILLE,01/04/2019 10:20:00,,2758.00,1739.00,513.00,283.00,159.00,195.00,111.00,52.00,APPROVED
KY: LOUISVILLE,01/04/2019 11:21:00,,2769.00,1756.00,518.00,287.00,161.00,194.00,113.00,54.00,APPROVED
KY: LOUISVILLE,01/04/2019 12:21:00,,2777.00,1754.00,517.00,294.00,162.00,196.00,111.00,54.00,APPROVED
KY: LOUISVILLE,01/04/2019 13:21:00,,2763.00,1746.00,517.00,294.00,161.00,196.00,112.00,52.00,APPROVED
KY: LOUISVILLE,01/04/2019 14:21:00,,2737.00,1715.00,518.00,290.00,160.00,191.00,109.00,54.00,APPROVED
KY: LOUISVILLE,01/04/2019 15:21:00,,2678.00,1690.00,505.00,287.00,154.00,186.00,110.00,54.00,APPROVED
KY: LOUISVILLE,01/04/2019 16:22:00,,2616.00,1646.00,494.00,272.00,156.00,184.00,108.00,55.00,APPROVED
KY: LOUISVILLE,01/04/2019 17:22:00,,2575.00,1607.00,485.00,266.00,153.00,180.00,109.00,56.00,APPROVED
KY: LOUISVILLE,01/04/2019 18:22:00,,2700.00,1705.00,508.00,283.00,159.00,187.00,114.00,55.00,APPROVED
KY: LOUISVILLE,01/04/2019 19:22:00,,3266.00,2211.00,631.00,364.00,191.00,241.00,136.00,63.00,APPROVED
KY: LOUISVILLE,01/04/2019 20:22:00,,3837.00,2686.00,765.00,449.00,225.00,294.00,155.00,72.00,APPROVED
KY: LOUISVILLE,01/04/2019 21:23:00,,3819.00,2679.00,791.00,470.00,233.00,302.00,164.00,73.00,APPROVED
KY: LOUISVILLE,01/04/2019 22:23:00,,3152.00,2086.00,624.00,364.00,191.00,241.00,134.00,62.00,APPROVED
KY: LOUISVILLE,01/04/2019 23:23:00,,3035.00,2009.00,602.00,346.00,185.00,227.00,131.00,59.00,APPROVED
KY: LOUISVILLE,01/05/2019 00:23:00,,3318.00,2220.00,662.00,387.00,201.00,251.00,141.00,62.00,APPROVED
KY: LOUISVILLE,01/05/2019 01:23:00,,4528.00,3258.00,932.00,560.00,272.00,366.00,189.00,81.00,APPROVED
KY: LOUISVILLE,01/05/2019 02:24:00,,3726.00,2579.00,783.00,459.00,230.00,299.00,159.00,70.00,APPROVED
KY: LOUISVILLE,01/05/2019 03:24:00,,3201.00,2117.00,648.00,364.00,192.00,244.00,130.00,61.00,APPROVED
KY: LOUISVILLE,01/05/2019 04:24:00,,2807.00,1752.00,532.00,291.00,159.00,194.00,111.00,53.00,APPROVED
KY: LOUISVILLE,01/05/2019 05:24:00,,2580.00,1553.00,471.00,250.00,145.00,169.00,102.00,51.00,APPROVED
KY: LOUISVILLE,01/05/2019 06:24:00,,2450.00,1443.00,438.00,225.00,136.00,156.00,94.00,48.00,APPROVED
KY: LOUISVILLE,01/05/2019 07:25:00,,2446.00,1435.00,430.00,218.00,135.00,152.00,91.00,48.00,APPROVED
KY: LOUISVILLE,01/05/2019 08:25:00,,2474.00,1435.00,432.00,219.00,131.00,151.00,90.00,48.00,APPROVED
KY: LOUISVILLE,01/05/2019 09:25:00,,2511.00,1464.00,438.00,226.00,135.00,154.00,92.00,48.00,APPROVED
KY: LOUISVILLE,01/05/2019 10:25:00,,2530.00,1476.00,446.00,226.00,137.00,155.00,93.00,48.00,APPROVED
KY: LOUISVILLE,01/05/2019 11:25:00,,2539.00,1481.00,442.00,223.00,135.00,156.00,92.00,47.00,APPROVED
KY: LOUISVILLE,01/05/2019 12:25:00,,2574.00,1502.00,443.00,229.00,139.00,155.00,92.00,48.00,APPROVED
KY: LOUISVILLE,01/05/2019 13:26:00,,2594.00,1510.00,448.00,229.00,137.00,157.00,94.00,48.00,APPROVED
KY: LOUISVILLE,01/05/2019 14:26:00,,2583.00,1516.00,459.00,232.00,137.00,159.00,96.00,48.00,APPROVED
KY: LOUISVILLE,01/05/2019 15:26:00,,2529.00,1489.00,451.00,229.00,138.00,160.00,92.00,49.00,APPROVED
KY: LOUISVILLE,01/05/2019 16:26:00,,2471.00,1475.00,450.00,233.00,137.00,158.00,99.00,49.00,APPROVED
KY: LOUISVILLE,01/05/2019 17:27:00,,2421.00,1469.00,446.00,236.00,142.00,162.00,100.00,50.00,APPROVED
KY: LOUISVILLE,01/05/2019 18:27:00,,2333.00,1430.00,450.00,236.00,140.00,161.00,98.00,51.00,APPROVED
KY: LOUISVILLE,01/05/2019 19:27:00,,2263.00,1382.00,432.00,234.00,138.00,158.00,103.00,51.00,APPROVED
KY: LOUISVILLE,01/05/2019 20:27:00,,2201.00,1345.00,426.00,229.00,135.00,156.00,98.00,51.00,APPROVED
KY: LOUISVILLE,01/05/2019 21:27:00,,2193.00,1345.00,426.00,225.00,136.00,156.00,99.00,50.00,APPROVED
KY: LOUISVILLE,01/05/2019 22:28:00,,2282.00,1385.00,426.00,226.00,135.00,152.00,102.00,51.00,APPROVED
KY: LOUISVILLE,01/05/2019 23:28:00,,2362.00,1417.00,430.00,227.00,136.00,151.00,98.00,50.00,APPROVED
KY: LOUISVILLE,01/06/2019 00:28:00,,2413.00,1446.00,436.00,231.00,137.00,155.00,97.00,50.00,APPROVED
KY: LOUISVILLE,01/06/2019 01:28:00,,2448.00,1463.00,435.00,229.00,137.00,156.00,97.00,48.00,APPROVED
KY: LOUISVILLE,01/06/2019 02:28:00,,2461.00,1481.00,442.00,231.00,139.00,156.00,101.00,50.00,APPROVED
KY: LOUISVILLE,01/06/2019 03:29:00,,2505.00,1494.00,445.00,233.00,137.00,156.00,97.00,50.00,APPROVED
KY: LOUISVILLE,01/06/2019 04:29:00,,2529.00,1523.00,452.00,241.00,140.00,159.00,97.00,50.00,APPROVED
KY: LOUISVILLE,01/06/2019 05:29:00,,2551.00,1546.00,460.00,238.00,144.00,165.00,102.00,48.00,APPROVED
KY: LOUISVILLE,01/06/2019 06:29:00,,2597.00,1567.00,467.00,251.00,146.00,171.00,101.00,50.00,APPROVED
KY: LOUISVILLE,01/06/2019 07:29:00,,2612.00,1595.00,473.00,257.00,147.00,175.00,103.00,50.00,APPROVED
KY: LOUISVILLE,01/06/2019 08:30:00,,2625.00,1599.00,475.00,254.00,150.00,174.00,102.00,52.00,APPROVED
KY: LOUISVILLE,01/06/2019 09:30:00,,2659.00,1633.00,480.00,262.00,149.00,175.00,105.00,53.00,APPROVED
KY: LOUISVILLE,01/06/2019 10:30:00,,2769.00,1756.00,520.00,284.00,162.00,192.00,111.00,53.00,APPROVED
KY: LOUISVILLE,01/06/2019 11:30:00,,2900.00,1940.00,571.00,331.00,173.00,220.00,121.00,57.00,APPROVED
KY: LOUISVILLE,01/06/2019 12:30:00,,3018.00,2086.00,617.00,357.00,190.00,242.00,133.00,61.00,APPROVED
KY: LOUISVILLE,01/06/2019 13:31:00,,3083.00,2193.00,650.00,391.00,199.00,260.00,140.00,63.00,APPROVED
KY: LOUISVILLE,01/06/2019 14:31:00,,3170.00,2298.00,678.00,420.00,212.00,271.00,147.00,65.00,APPROVED
KY: LOUISVILLE,01/06/2019 15:31:00,,2985.00,2103.00,635.00,388.00,197.00,257.00,142.00,65.00,APPROVED
KY: LOUISVILLE,01/06/2019 16:31:00,,2615.00,1714.00,530.00,310.00,167.00,206.00,122.00,60.00,APPROVED
KY: LOUISVILLE,01/06/2019 17:31:00,,2389.00,1510.00,468.00,260.00,148.00,176.00,110.00,54.00,APPROVED
KY: LOUISVILLE,01/06/2019 18:32:00,,2279.00,1421.00,443.00,242.00,144.00,167.00,102.00,53.00,APPROVED
KY: LOUISVILLE,01/06/2019 19:32:00,,2245.00,1396.00,441.00,236.00,141.00,161.00,101.00,51.00,APPROVED
KY: LOUISVILLE,01/06/2019 20:32:00,,2211.00,1369.00,440.00,230.00,140.00,161.00,103.00,53.00,APPROVED
KY: LOUISVILLE,01/06/2019 21:32:00,,2223.00,1372.00,433.00,234.00,139.00,159.00,103.00,53.00,APPROVED
KY: LOUISVILLE,01/06/2019 22:32:00,,2290.00,1412.00,438.00,236.00,140.00,161.00,106.00,52.00,APPROVED
KY: LOUISVILLE,01/06/2019 23:33:00,,2369.00,1449.00,444.00,241.00,138.00,158.00,101.00,52.00,APPROVED
KY: LOUISVILLE,01/07/2019 00:33:00,,2382.00,1460.00,445.00,239.00,140.00,162.00,100.00,51.00,APPROVED
KY: LOUISVILLE,01/07/2019 01:33:00,,2409.00,1475.00,446.00,241.00,142.00,162.00,103.00,52.00,APPROVED
KY: LOUISVILLE,01/07/2019 02:33:00,,2430.00,1488.00,447.00,239.00,141.00,164.00,103.00,50.00,APPROVED
KY: LOUISVILLE,01/07/2019 03:33:00,,2462.00,1505.00,458.00,247.00,145.00,164.00,104.00,51.00,APPROVED
KY: LOUISVILLE,01/07/2019 04:34:00,,2477.00,1510.00,460.00,248.00,144.00,168.00,104.00,52.00,APPROVED
KY: LOUISVILLE,01/07/2019 05:34:00,,2499.00,1536.00,461.00,253.00,148.00,166.00,105.00,52.00,APPROVED
KY: LOUISVILLE,01/07/2019 06:34:00,,2506.00,1544.00,468.00,252.00,146.00,169.00,104.00,51.00,APPROVED
KY: LOUISVILLE,01/07/2019 07:34:00,,2515.00,1557.00,465.00,256.00,145.00,169.00,107.00,51.00,APPROVED
KY: LOUISVILLE,01/07/2019 08:34:00,,2510.00,1535.00,463.00,253.00,143.00,169.00,108.00,52.00,APPROVED
KY: LOUISVILLE,01/07/2019 09:35:00,,2490.00,1525.00,448.00,247.00,142.00,162.00,104.00,51.00,APPROVED
KY: LOUISVILLE,01/07/2019 10:35:00,,2498.00,1515.00,459.00,245.00,142.00,163.00,103.00,51.00,APPROVED
KY: LOUISVILLE,01/07/2019 11:35:00,,2485.00,1520.00,455.00,244.00,142.00,163.00,105.00,52.00,APPROVED
KY: LOUISVILLE,01/07/2019 12:35:00,,2486.00,1517.00,457.00,245.00,141.00,164.00,104.00,51.00,APPROVED
KY: LOUISVILLE,01/07/2019 13:14:00,,2499.00,1523.00,460.00,246.00,144.00,165.00,101.00,51.00,APPROVED
KY: LOUISVILLE,01/07/2019 14:22:00,,2426.00,1440.00,427.00,226.00,136.00,151.00,97.00,49.00,APPROVED
KY: LOUISVILLE,01/07/2019 15:22:00,,2407.00,1444.00,439.00,232.00,140.00,158.00,100.00,50.00,APPROVED
KY: LOUISVILLE,01/07/2019 16:22:00,,2349.00,1430.00,431.00,232.00,139.00,161.00,99.00,49.00,APPROVED
KY: LOUISVILLE,01/07/2019 17:23:00,,2310.00,1406.00,431.00,232.00,141.00,160.00,100.00,50.00,APPROVED
KY: LOUISVILLE,01/07/2019 18:23:00,,2249.00,1368.00,425.00,227.00,137.00,156.00,100.00,52.00,APPROVED
KY: LOUISVILLE,01/07/2019 19:23:00,,2207.00,1338.00,417.00,222.00,136.00,153.00,99.00,50.00,APPROVED
KY: LOUISVILLE,01/07/2019 20:23:00,,2239.00,1364.00,422.00,224.00,137.00,156.00,102.00,49.00,APPROVED
KY: LOUISVILLE,01/07/2019 21:23:00,,2425.00,1500.00,454.00,249.00,144.00,168.00,107.00,54.00,APPROVED
KY: LOUISVILLE,01/07/2019 22:24:00,,2352.00,1434.00,440.00,238.00,142.00,160.00,99.00,51.00,APPROVED
KY: LOUISVILLE,01/07/2019 23:24:00,,2272.00,1369.00,422.00,221.00,132.00,154.00,100.00,49.00,APPROVED
KY: LOUISVILLE,01/08/2019 00:24:00,,2280.00,1348.00,421.00,217.00,132.00,150.00,98.00,50.00,APPROVED
KY: LOUISVILLE,01/08/2019 01:24:00,,2277.00,1370.00,416.00,224.00,136.00,149.00,98.00,51.00,APPROVED
KY: LOUISVILLE,01/08/2019 02:24:00,,2260.00,1370.00,417.00,223.00,131.00,152.00,99.00,50.00,APPROVED
KY: LOUISVILLE,01/08/2019 03:24:00,,2246.00,1344.00,420.00,219.00,135.00,151.00,97.00,49.00,APPROVED
KY: LOUISVILLE,01/08/2019 04:25:00,,2244.00,1346.00,415.00,216.00,132.00,149.00,95.00,49.00,APPROVED
KY: LOUISVILLE,01/08/2019 05:25:00,,2255.00,1355.00,421.00,219.00,130.00,152.00,97.00,49.00,APPROVED
KY: LOUISVILLE,01/08/2019 06:25:00,,2265.00,1365.00,417.00,213.00,132.00,152.00,97.00,48.00,APPROVED
KY: LOUISVILLE,01/08/2019 07:25:00,,2262.00,1359.00,421.00,219.00,134.00,152.00,97.00,48.00,APPROVED
KY: LOUISVILLE,01/08/2019 08:25:00,,2268.00,1372.00,425.00,222.00,132.00,150.00,99.00,49.00,APPROVED
KY: LOUISVILLE,01/08/2019 10:26:00,,2281.00,1360.00,414.00,223.00,134.00,150.00,99.00,51.00,APPROVED
KY: LOUISVILLE,01/08/2019 11:26:00,,2261.00,1360.00,423.00,221.00,134.00,150.00,97.00,50.00,APPROVED
KY: LOUISVILLE,01/08/2019 12:26:00,,2287.00,1369.00,422.00,221.00,134.00,151.00,98.00,51.00,APPROVED
KY: LOUISVILLE,01/08/2019 13:27:00,,2263.00,1369.00,418.00,227.00,134.00,151.00,99.00,51.00,APPROVED
KY: LOUISVILLE,01/08/2019 14:27:00,,2271.00,1376.00,424.00,225.00,135.00,153.00,99.00,52.00,APPROVED
KY: LOUISVILLE,01/08/2019 15:27:00,,2283.00,1377.00,427.00,227.00,133.00,155.00,98.00,50.00,APPROVED
KY: LOUISVILLE,01/08/2019 16:27:00,,2243.00,1366.00,423.00,223.00,136.00,154.00,99.00,50.00,APPROVED
KY: LOUISVILLE,01/08/2019 17:27:00,,2176.00,1349.00,424.00,225.00,138.00,159.00,101.00,51.00,APPROVED
KY: LOUISVILLE,01/08/2019 18:28:00,,2148.00,1336.00,425.00,232.00,139.00,160.00,107.00,52.00,APPROVED
KY: LOUISVILLE,01/08/2019 19:28:00,,2114.00,1323.00,427.00,228.00,138.00,158.00,104.00,52.00,APPROVED
KY: LOUISVILLE,01/08/2019 20:28:00,,2169.00,1350.00,428.00,232.00,140.00,162.00,104.00,53.00,APPROVED
KY: LOUISVILLE,01/08/2019 21:28:00,,2247.00,1385.00,438.00,240.00,141.00,162.00,105.00,54.00,APPROVED
KY: LOUISVILLE,01/08/2019 22:28:00,,2363.00,1453.00,442.00,243.00,142.00,163.00,102.00,52.00,APPROVED
KY: LOUISVILLE,01/08/2019 23:29:00,,2437.00,1476.00,448.00,238.00,141.00,158.00,99.00,51.00,APPROVED
KY: LOUISVILLE,01/09/2019 00:29:00,,2459.00,1475.00,444.00,234.00,139.00,157.00,99.00,50.00,APPROVED
KY: LOUISVILLE,01/09/2019 01:29:00,,2461.00,1464.00,440.00,229.00,138.00,155.00,100.00,50.00,APPROVED
KY: LOUISVILLE,01/09/2019 02:29:00,,2450.00,1448.00,440.00,225.00,139.00,154.00,94.00,49.00,APPROVED
KY: LOUISVILLE,01/09/2019 03:29:00,,2467.00,1456.00,435.00,227.00,140.00,152.00,95.00,48.00,APPROVED
KY: LOUISVILLE,01/09/2019 04:30:00,,2479.00,1456.00,441.00,224.00,135.00,155.00,92.00,48.00,APPROVED
KY: LOUISVILLE,01/09/2019 05:30:00,,2472.00,1452.00,439.00,226.00,135.00,153.00,98.00,48.00,APPROVED
KY: LOUISVILLE,01/09/2019 06:30:00,,2484.00,1452.00,440.00,223.00,136.00,151.00,96.00,48.00,APPROVED
KY: LOUISVILLE,01/09/2019 07:30:00,,2509.00,1458.00,443.00,225.00,135.00,154.00,96.00,48.00,APPROVED
KY: LOUISVILLE,01/09/2019 08:30:00,,2522.00,1470.00,447.00,225.00,136.00,155.00,94.00,46.00,APPROVED
KY: LOUISVILLE,01/09/2019 09:31:00,,2561.00,1503.00,452.00,229.00,138.00,155.00,96.00,47.00,APPROVED
KY: LOUISVILLE,01/09/2019 10:31:00,,2613.00,1524.00,457.00,235.00,138.00,162.00,96.00,48.00,APPROVED
KY: LOUISVILLE,01/09/2019 11:31:00,,2652.00,1553.00,465.00,239.00,140.00,161.00,94.00,48.00,APPROVED
KY: LOUISVILLE,01/09/2019 12:31:00,,2655.00,1574.00,464.00,240.00,143.00,167.00,96.00,48.00,APPROVED
KY: LOUISVILLE,01/09/2019 13:31:00,,2651.00,1553.00,460.00,241.00,143.00,162.00,97.00,50.00,APPROVED
KY: LOUISVILLE,01/09/2019 14:32:00,,2642.00,1538.00,454.00,230.00,143.00,162.00,91.00,50.00,APPROVED
KY: LOUISVILLE,01/09/2019 15:32:00,,2647.00,1536.00,458.00,235.00,142.00,161.00,94.00,47.00,APPROVED
KY: LOUISVILLE,01/09/2019 16:32:00,,2651.00,1548.00,461.00,233.00,139.00,162.00,95.00,48.00,APPROVED
KY: LOUISVILLE,01/09/2019 17:32:00,,2624.00,1538.00,459.00,236.00,141.00,162.00,93.00,47.00,APPROVED
KY: LOUISVILLE,01/09/2019 18:32:00,,2569.00,1501.00,457.00,229.00,143.00,159.00,95.00,48.00,APPROVED
KY: LOUISVILLE,01/09/2019 19:33:00,,2546.00,1495.00,448.00,228.00,141.00,160.00,96.00,48.00,APPROVED
KY: LOUISVILLE,01/09/2019 20:33:00,,2553.00,1497.00,456.00,232.00,140.00,160.00,94.00,48.00,APPROVED
KY: LOUISVILLE,01/09/2019 21:33:00,,2609.00,1523.00,458.00,233.00,141.00,163.00,94.00,49.00,APPROVED
KY: LOUISVILLE,01/09/2019 22:33:00,,2659.00,1550.00,468.00,235.00,143.00,166.00,95.00,48.00,APPROVED
KY: LOUISVILLE,01/09/2019 23:33:00,,2700.00,1573.00,465.00,231.00,141.00,165.00,93.00,49.00,APPROVED
KY: LOUISVILLE,01/10/2019 00:34:00,,2708.00,1576.00,464.00,235.00,140.00,164.00,94.00,48.00,APPROVED
KY: LOUISVILLE,01/10/2019 01:34:00,,2710.00,1579.00,470.00,237.00,142.00,168.00,93.00,48.00,APPROVED
KY: LOUISVILLE,01/10/2019 02:34:00,,2706.00,1573.00,467.00,237.00,140.00,168.00,89.00,49.00,APPROVED
KY: LOUISVILLE,01/10/2019 03:34:00,,2744.00,1576.00,477.00,235.00,142.00,166.00,90.00,48.00,APPROVED
KY: LOUISVILLE,01/10/2019 04:34:00,,2744.00,1592.00,474.00,233.00,144.00,167.00,89.00,47.00,APPROVED
KY: LOUISVILLE,01/10/2019 05:35:00,,2761.00,1590.00,469.00,232.00,142.00,164.00,89.00,47.00,APPROVED
KY: LOUISVILLE,01/10/2019 06:35:00,,2761.00,1590.00,473.00,235.00,143.00,168.00,88.00,48.00,APPROVED
KY: LOUISVILLE,01/10/2019 07:35:00,,2759.00,1582.00,475.00,231.00,140.00,168.00,88.00,48.00,APPROVED
KY: LOUISVILLE,01/10/2019 08:35:00,,2760.00,1594.00,475.00,233.00,143.00,170.00,89.00,48.00,APPROVED
KY: LOUISVILLE,01/10/2019 09:35:00,,2759.00,1588.00,477.00,235.00,142.00,168.00,88.00,49.00,APPROVED
KY: LOUISVILLE,01/10/2019 10:36:00,,2754.00,1595.00,481.00,235.00,144.00,170.00,87.00,46.00,APPROVED
KY: LOUISVILLE,01/10/2019 11:36:00,,2758.00,1581.00,480.00,237.00,141.00,171.00,86.00,48.00,APPROVED
KY: LOUISVILLE,01/10/2019 12:36:00,,2753.00,1589.00,477.00,239.00,143.00,169.00,87.00,49.00,APPROVED
KY: LOUISVILLE,01/10/2019 13:36:00,,2750.00,1594.00,473.00,238.00,143.00,170.00,88.00,47.00,APPROVED
KY: LOUISVILLE,01/10/2019 14:36:00,,2747.00,1591.00,480.00,239.00,142.00,169.00,90.00,49.00,APPROVED
KY: LOUISVILLE,01/10/2019 15:37:00,,2724.00,1578.00,478.00,237.00,143.00,170.00,89.00,49.00,APPROVED
KY: LOUISVILLE,01/10/2019 16:37:00,,2673.00,1531.00,467.00,230.00,141.00,166.00,89.00,48.00,APPROVED
KY: LOUISVILLE,01/10/2019 17:37:00,,2650.00,1529.00,459.00,230.00,140.00,160.00,91.00,48.00,APPROVED
KY: LOUISVILLE,01/10/2019 18:37:00,,2624.00,1527.00,459.00,227.00,142.00,162.00,90.00,48.00,APPROVED
KY: LOUISVILLE,01/10/2019 19:37:00,,2602.00,1526.00,457.00,230.00,142.00,163.00,91.00,49.00,APPROVED
KY: LOUISVILLE,01/10/2019 20:38:00,,2580.00,1516.00,468.00,230.00,143.00,162.00,92.00,49.00,APPROVED
KY: LOUISVILLE,01/10/2019 21:38:00,,2598.00,1512.00,457.00,231.00,139.00,161.00,91.00,46.00,APPROVED
KY: LOUISVILLE,01/10/2019 22:38:00,,2611.00,1520.00,458.00,227.00,142.00,161.00,91.00,48.00,APPROVED